Home   Weather   Rapid City   Past weeks

Flag for USA Past Weather in Rapid City, South Dakota, USA — Yesterday and Last 2 Weeks

Now
19 °F

Light snow. Ice fog.


Feels Like: 9 °F
Forecast: 22 / 26 °F
Wind: 9 mph from Northwest

Location: Ellsworth Air Force Base

Current Time: Jan 24, 2017 at 10:10:12 am

Latest Report: Jan 24, 2017 at 9:13 am


Visibility: 2 mi

Pressure: 29.77 "Hg (26.26 "Hg at 977m altitude)

Humidity: 100%

Dew Point: 19 °F

Location of Rapid CityLocation

Past Weather in Rapid City — Graph

°F

Rapid City Temperature Yesterday

Maximum temperature yesterday: 24 °F (at 12:58 am)
Minimum temperature yesterday: 19 °F (at 8:13 am)
Average temperature yesterday: 23 °F

High & Low Weather Summary for the Past Weeks

 TemperatureHumidityPressure
High46 °F (Jan 19, 10:58 am)100% (Jan 10, 8:19 pm)30.58 "Hg (Jan 10, 8:19 pm)
Low-3 °F (Jan 12, 3:58 am)36% (Jan 17, 4:58 pm)29.33 "Hg (Jan 21, 1:28 am)
Average22 °F75%29.89 "Hg
* Reported Jan 9 8:32 am — Jan 24 8:59 am, Rapid City, Weather by CustomWeather, © 2017

Note: Actual official high and low records may vary slightly from our data, if they occured in-between our weather recording intervals... More about our weather records

Advertising

Rapid City Weather History for the Previous 24 Hours

Scroll right to see more
 ConditionsComfort  
Time TempWeatherWind HumidityBarometerVisibility
8:59 am
Tue, Jan 24
20 °FLight snow. Ice fog.5 mph99%29.91 "Hg1 mi
8:41 am19 °FLight snow. Ice fog.5 mph100%29.76 "Hg1 mi
8:18 am19 °FLight snow. Ice fog.5 mph100%29.76 "Hg1 mi
7:58 am19 °FLight snow. Ice fog.5 mph100%29.90 "Hg1 mi
7:28 am21 °FLight snow. Ice fog.3 mph93%29.76 "Hg1 mi
7:16 am21 °FLight snow. Ice fog.3 mph93%29.75 "Hg1 mi
6:58 am21 °FLight snow. Ice fog.5 mph99%29.88 "Hg2 mi
6:19 am21 °FLight snow. Ice fog.6 mph100%29.73 "Hg1 mi
5:58 am21 °FLight snow. Ice fog.6 mph100%29.86 "Hg1 mi
5:33 am21 °FLight snow. Ice fog.6 mph100%29.73 "Hg1 mi
4:58 am21 °FIce fog.6 mph100%29.85 "Hg1 mi
3:58 am23 °FIce fog.7 mph100%29.83 "Hg1 mi
2:58 am23 °FIce fog.7 mph100%29.85 "Hg1 mi
2:28 am23 °FIce fog.9 mph100%29.72 "Hg2 mi
2:12 am23 °FIce fog.8 mph100%29.73 "Hg1 mi
1:58 am23 °FIce fog.9 mph100%29.84 "Hg1 mi
12:58 am23 °FIce fog.9 mph100%29.84 "Hg1 mi
12:36 am23 °FIce fog.8 mph100%29.71 "Hg1 mi
11:58 pm
Mon, Jan 23
23 °FIce fog.10 mph100%29.84 "Hg1 mi
10:58 pm23 °FIce fog.8 mph100%29.84 "Hg1 mi
10:23 pm23 °FIce fog.12 mph100%29.83 "Hg1 mi
9:58 pm23 °FIce fog.12 mph100%29.83 "Hg1 mi
8:58 pm23 °FIce fog.13 mph100%29.84 "Hg1 mi
8:31 pm23 °FIce fog.13 mph100%29.85 "Hg1 mi
7:58 pm23 °FIce fog.12 mph100%29.85 "Hg1 mi
6:58 pm23 °FIce fog.14 mph100%29.84 "Hg1 mi
6:34 pm23 °FLight freezing rain. Ice fog.14 mph100%29.70 "Hg2 mi
5:58 pm23 °FLow clouds.14 mph99%29.81 "Hg10 mi
4:58 pm23 °FIce fog.14 mph93%29.80 "Hg2 mi
4:43 pm23 °FIce fog.14 mph93%29.79 "Hg2 mi
4:13 pm23 °FFog.12 mph100%29.78 "Hg1 mi
3:58 pm23 °FFog.16 mph98%29.77 "Hg1 mi
2:58 pm23 °FLow clouds.14 mph100%29.76 "Hg10 mi
2:13 pm23 °FLow clouds.13 mph100%29.61 "Hg10 mi
1:58 pm23 °FLow clouds.13 mph99%29.74 "Hg10 mi
12:58 pm23 °FLow clouds.12 mph100%29.73 "Hg10 mi
11:58 am24 °FLow clouds.7 mph97%29.74 "Hg10 mi
10:58 am23 °FLow clouds.3 mph99%29.76 "Hg10 mi
10:38 am21 °FLow clouds.No wind100%29.64 "Hg10 mi
Weather by CustomWeather, © 2017

See weather overviewHow to use our weather pages